Location: Freeman Spur
(37.8612°N, 88.9973°W)
Time: 01:22:35
(UTC+00:00)

Daily predictions for brighter satellites

Satellite Brightness Start Highest point End
(mag) Time Altitude Azimuth Time Altitude Azimuth Time Altitude Azimuth
Cosmos 1626 4.0 00:01:46 10° SW 00:05:06 32° WNW 00:08:26 10° NNW
Cosmos 1777 Rocket 4.0 00:03:20 10° S 00:08:33 70° ESE 00:13:48 10° NNE
Cosmos 1844 Rocket 3.4 00:03:42 10° SSE 00:08:40 33° ESE 00:12:23 16° NE
CZ-4B R/B 4.4 00:03:33 10° S 00:08:47 46° W 00:14:08 10° NNW
YAOGAN 1 3.2 00:06:16 10° SE 00:10:08 33° ENE 00:14:00 10° N
Cosmos 1892 Rocket 3.5 00:06:22 10° S 00:10:41 65° E 00:14:58 10° NNE
Cosmos 1939 Rocket 3.2 00:07:03 10° S 00:11:11 74° W 00:15:18 10° NNW
Abrixas rocket 1.5 00:08:54 10° NW 00:11:33 76° NE 00:12:50 26° ESE
BREEZE-M DEB (TANK) 3.9 00:10:02 10° WNW 00:12:55 59° SSW 00:22:15 10° SE
Cosmos 783 Rocket 4.4 00:08:44 10° NNW 00:13:58 81° ENE 00:19:13 10° SSE
IRS-1C Rocket 4.0 00:09:04 10° SSE 00:14:14 64° ENE 00:19:27 10° N
CZ-4 R/B 4.3 00:10:46 10° SSE 00:14:50 67° ENE 00:18:58 10° N
Cosmos 1606 Rocket 3.5 00:10:31 10° N 00:14:54 87° ENE 00:19:19 10° S
H-2A R/B 4.4 00:13:06 10° NNW 00:16:40 24° WNW 00:20:12 10° WSW
CZ-4 R/B 1.6 00:13:51 10° SSE 00:17:49 46° ENE 00:21:46 10° N
Cosmos 1603 3.9 00:17:12 10° NNW 00:22:54 76° WSW 00:28:37 10° SSE
CZ-4C R/B 4.4 00:19:55 10° WNW 00:23:05 16° NNW 00:26:34 10° N
SKYMED 2 4.4 00:22:55 10° N 00:27:08 51° WNW 00:31:20 10° SSW
COSMOS 2455 2.8 00:21:52 10° SSW 00:27:53 85° ESE 00:33:11 14° NNE
CZ-2C R/B 3.1 00:25:48 10° SSE 00:30:54 86° WSW 00:36:22 10° NNW
Cosmos 1689 Rocket 1.8 00:29:56 34° NNE 00:31:02 89° W 00:33:53 10° SSW
SAR-Lupe-4 3.5 00:30:09 13° N 00:33:18 83° WNW 00:36:52 10° SSW
CSL-04 Rocket 4.0 00:28:25 10° SE 00:33:20 39° ENE 00:38:19 10° N
Cosmos 1315 Rocket 4.3 00:31:54 10° NNW 00:35:36 39° W 00:39:21 10° SSW
SJ 16-02 1.5 00:31:33 10° S 00:35:47 48° ESE 00:36:59 37° ENE
MOS 1 Rocket 3.7 00:32:49 10° N 00:37:03 56° WNW 00:41:14 10° SSW
Cosmos 2228 4.3 00:34:33 10° NNW 00:38:34 42° W 00:42:35 10° SSW
Cosmos 2058 Rocket 3.0 00:35:43 10° N 00:40:13 78° E 00:44:43 10° S
ISS -3.7 00:36:59 10° SW 00:40:17 58° SE 00:40:18 57° SE
Okean 1-7 Rocket 3.6 00:36:39 10° S 00:41:11 88° W 00:45:45 10° N
ATLAS 5 CENTAUR R/B 3.8 00:41:01 10° W 00:43:50 18° NW 00:46:50 10° N
EXPRESS MD2 4.4 00:40:18 10° NW 00:46:38 36° NNE 00:47:09 35° NNE
Nadezhda 4 Rocket 3.9 00:40:28 10° S 00:46:45 86° E 00:53:01 10° N
Aureole 2 Rocket 2.5 00:44:41 10° SSW 00:47:01 55° SSW 00:47:01 55° SSW
H-2A R/B 1.8 00:45:31 10° SSE 00:50:26 84° ENE 00:55:29 10° N
Meteor 2-10 Rocket 3.6 00:46:19 10° N 00:51:52 83° W 00:57:09 10° S
ATLAS 3B R/B 3.8 00:45:31 10° NW 00:52:12 46° WSW 00:59:05 10° S
DMSP B5D1-3 4.4 00:47:25 10° NNE 00:52:32 90° SSE 00:57:38 10° SSW
Helios 1A Rocket 2.8 00:48:43 10° SSE 00:52:49 83° ENE 00:56:59 10° N
Cosmos 2263 Rocket 4.5 00:53:03 10° WSW 00:57:12 20° NW 01:01:21 10° N
X-37B 1.6 00:54:49 10° SW 00:57:06 43° SW 00:57:06 43° SW
Hubble Space Telescope 2.9 00:58:04 10° SSW 01:00:30 16° S 01:00:30 16° S
SJ-11-01 4.4 01:00:13 10° S 01:04:55 74° WSW 01:09:37 10° NNW
Cosmos 1626 Rocket 3.4 01:01:17 10° S 01:05:36 88° E 01:05:44 84° NNE
Cosmos 1818 3.6 01:00:57 10° SSW 01:06:21 81° WNW 01:08:06 45° NNE
Okean-O 3.4 01:03:07 10° S 01:07:25 51° W 01:11:45 10° NNW
Cosmos 2098 Rocket 4.3 01:07:00 10° SSE 01:23:16 - NNE 01:13:17 52° E
DELTA 2 R/B (1) 4.3 01:10:09 10° W 01:15:27 47° SSW 01:17:03 36° SSE
ARGOS 3.1 01:11:15 10° S 01:16:36 80° WSW 01:21:59 10° NNW
Lacrosse 5 3.5 01:12:14 10° NNW 01:14:35 22° N 01:14:35 22° N
CSL-04 Debris 4.2 01:13:23 10° S 01:18:46 76° WSW 01:24:10 10° NNW
Cosmos 1844 3.8 01:15:50 10° SSW 01:21:27 73° WNW 01:22:59 49° N
Cosmos 2026 Rocket 3.7 01:18:26 10° S 01:24:29 79° E 01:25:03 71° NE
CZ-2C R/B 2.8 01:29:07 50° N 01:30:34 73° WNW 01:36:08 10° SSW
USA 267 3.7 01:39:17 46° N 01:40:48 56° NW 01:47:08 10° WSW
Cosmos 1844 Rocket 4.2 01:47:25 10° WSW 01:52:28 33° WNW 01:54:07 28° NNW
SJ 16-02 4.2 02:12:12 10° W 02:14:03 14° WNW 02:14:03 14° WNW
FALCON 9 R/B 3.7 10:02:08 28° SSE 10:02:08 28° SSE 10:04:14 10° ESE
Cosmos 2233 Rocket 4.3 10:11:31 10° S 10:17:50 64° E 10:23:51 10° NNE
Cosmos 44 4.5 10:20:39 46° E 10:20:39 46° E 10:24:58 10° SE
Chandra Rocket (1) 4.4 10:26:45 19° SSE 10:26:45 19° SSE 10:28:13 10° SE
COSMO-SKYMED 1 4.5 10:28:23 10° SE 10:32:04 27° ENE 10:33:29 23° NE
Cosmos 1932 4.5 10:34:12 73° N 10:34:12 73° N 10:40:04 10° NNE
SJ 16-02 2.7 10:43:44 34° NE 10:44:33 37° ENE 10:48:36 10° SE
ADEOS 3.8 10:42:00 10° NNE 10:54:19 - SSW 10:46:11 58° NNE
Cosmos 1844 Rocket 2.5 10:47:01 81° N 10:47:18 85° ENE 10:52:52 10° SSE
Cosmos 2084 4.5 10:49:47 41° NE 10:49:47 41° NE 10:52:41 10° NE
CZ-3 Stage 3 3.4 10:49:31 19° SSE 10:49:31 19° SSE 10:50:53 10° SE
ATLAS 3B CENTAUR R/B 4.5 10:45:58 28° SW 10:49:35 35° S 11:04:23 10° SE
Cosmos 2322 3.5 10:50:35 79° SW 10:50:54 84° WNW 10:56:40 10° NNE
Cosmos 2333 Rocket 2.1 10:52:11 47° SSW 10:53:53 88° ESE 10:59:34 10° NNE
Cosmos 2237 Rocket 4.5 10:53:17 10° SSE 10:57:43 24° E 11:02:11 10° NE
Meteor 2-5 Rocket 3.5 11:00:23 58° NW 11:01:24 72° W 11:07:03 10° S
Cosmos 2219 Rocket 2.0 11:03:26 25° SSW 11:06:47 82° WNW 11:12:24 10° NNE
BREEZE M DEB (TANK) 4.1 11:09:01 15° ENE 11:09:01 15° ENE 11:09:36 10° ENE
Meteor 1-22 Rocket 4.2 11:02:37 10° SSW 11:08:08 62° W 11:13:58 10° N
COSMOS 2428 2.6 11:07:26 10° SSW 11:13:08 86° WNW 11:18:51 10° NNE
IRIDIUM 106 4.2 11:08:12 10° S 11:13:25 86° W 11:18:40 10° N
Cosmos 2333 4.4 11:18:34 44° WNW 11:18:35 44° WNW 11:23:56 10° N
SKYMED 2 3.4 11:15:35 10° S 11:19:55 84° WSW 11:22:03 30° NNW
Cosmos 1455 Rocket 3.3 11:15:37 10° S 11:19:57 68° E 11:24:17 10° NNE
CZ-4B R/B 2.4 11:20:55 10° N 11:24:30 79° WNW 11:28:09 10° SSW
Cosmos 1758 3.1 11:21:23 10° S 11:25:23 81° W 11:29:28 10° N
CZ-4B R/B 3.1 11:25:42 10° S 11:27:07 22° SSW 11:27:07 22° SSW
CZ-3A R/B 4.5 11:24:11 18° WSW 11:31:20 31° SSW 11:38:02 10° SE
Cosmos 2360 Rocket 3.9 11:37:01 15° NNW 11:37:01 15° NNW 11:38:50 10° N
GPS 2-04 Rocket1 3.1 11:34:18 39° WSW 11:35:33 57° S 11:39:39 10° ESE
YAOGAN 6 3.0 11:35:02 10° NNE 11:38:43 66° E 11:42:22 10° S
Cosmos 1898 Rocket 3.7 11:36:25 10° NNW 11:41:36 69° ENE 11:46:44 10° SSE
Cosmos 1763 Rocket 3.4 11:36:33 10° SSW 11:41:38 64° WNW 11:46:48 10° NNE
deb Chang Zheng 4 3.9 11:39:23 10° N 11:43:20 39° WNW 11:47:16 10° SW
GEOS 3 Rocket 3.7 11:38:29 10° SSE 11:43:46 64° WSW 11:47:37 19° NW
ERS-2 2.2 11:40:24 10° S 11:43:58 52° W 11:45:38 27° NW
Meteor PRIRODA 3.8 11:40:33 10° N 11:44:00 44° WNW 11:47:27 10° SSW
Nadezhda 4 Rocket 4.4 11:37:58 10° N 11:44:02 64° E 11:50:05 10° SSE
MOS 1 Rocket 3.4 11:38:52 10° S 11:44:03 71° W 11:48:58 10° NNW
Meteor 1-24 Rocket 4.1 11:41:26 20° NW 11:44:33 37° W 11:49:38 10° SSW
Cosmos 841 Rocket 3.9 11:39:59 10° S 11:45:03 65° ESE 11:50:09 10° NNE
USA 276 2.0 11:51:49 33° NW 11:53:03 79° NE 11:56:10 10° SE
Lacrosse 5 rocket 3.8 11:52:46 10° N 11:54:03 11° NNE 11:55:18 10° NE
